Flag for Russia Weather past 2 weeks in Sochi, Russia

Now
86 °F

Sunny.


Feels Like: 86 °F
Forecast: 73 / 94 °F
Wind: 8 mph from West

Location: Adler

Current Time: Aug 1, 2014 at 12:29:45 PM

Latest Report: Aug 1, 2014 at 12:00 PM


Visibility: N/A

Pressure: 29.74 "Hg

Humidity: 43%

Dew point: 61 °F

Location of SochiLocation

Historic Weather in Sochi — Graph

°F

Sochi temperature yesterday

Maximum temperature yesterday: 84 °F (at 10:00 AM)
Minimum temperature yesterday: 72 °F (at 4:30 AM)
Average temperature yesterday: 79 °F

Past Weeks' High & Low Weather Summary

 TemperatureHumidityPressure
High88 °F (Jul 24, 3:00 PM)94% (Jul 19, 3:00 AM)29.89 "Hg (Jul 19, 3:00 AM)
Low66 °F (Jul 22, 3:00 AM)38% (Jul 24, 5:30 PM)29.59 "Hg (Jul 24, 7:00 PM)
Average78 °F71%29.76 "Hg
* Reported Jul 17 11:00 AM — Aug 1 11:30 AM, Sochi, Weather by CustomWeather, © 2014

Note: Actual official high and low records may vary slightly from our data, if they occured in-between our weather recording intervals... More about our weather records

Advertising

Sochi weather history for previous 24 hours

 ConditionsComfort  
Time TempWeatherWind HumidityBarometerVisibility
11:30 AM
Aug 1
86 °FSunny.6 mph43%29.74 "HgN/A
11:00 AM86 °FSunny.1 mph49%29.74 "HgN/A
10:30 AM86 °FSunny.1 mph49%29.74 "HgN/A
10:00 AM84 °FSunny.8 mph51%29.74 "HgN/A
9:30 AM81 °FSunny.8 mph58%29.74 "HgN/A
9:00 AM79 °FSunny.10 mph61%29.74 "HgN/A
8:30 AM77 °FSunny.10 mph65%29.74 "HgN/A
8:00 AM75 °FSunny.10 mph65%29.74 "HgN/A
7:30 AM73 °FSunny.10 mph69%29.74 "HgN/A
6:30 AM70 °FClear.8 mph78%29.74 "HgN/A
6:00 AM70 °FClear.10 mph78%29.74 "HgN/A
5:30 AM70 °FClear.8 mph78%29.74 "HgN/A
5:00 AM72 °FClear.8 mph78%29.74 "HgN/A
4:30 AM72 °FClear.8 mph78%29.74 "HgN/A
4:00 AM72 °FClear.8 mph78%29.74 "HgN/A
3:30 AM73 °FClear.8 mph74%29.74 "HgN/A
3:00 AM72 °FClear.8 mph78%29.74 "HgN/A
2:30 AM73 °FClear.8 mph74%29.77 "HgN/A
2:00 AM73 °FClear.8 mph74%29.77 "HgN/A
1:30 AM75 °FClear.8 mph74%29.77 "HgN/A
1:00 AM75 °FClear.8 mph74%29.77 "HgN/A
12:30 AM75 °FClear.8 mph74%29.77 "HgN/A
12:00 AM75 °FClear.6 mph74%29.77 "HgN/A
11:30 PM
Jul 31
73 °FClear.6 mph83%29.77 "HgN/A
11:00 PM75 °FClear.6 mph78%29.74 "HgN/A
10:30 PM75 °FPassing clouds.6 mph78%29.77 "HgN/A
10:00 PM77 °FPassing clouds.3 mph74%29.77 "HgN/A
9:30 PM79 °FPassing clouds.3 mph70%29.74 "HgN/A
9:00 PM81 °FPassing clouds.3 mph66%29.74 "HgN/A
8:30 PM81 °FPassing clouds.8 mph66%29.74 "HgN/A
8:00 PM82 °FPassing clouds.8 mph62%29.74 "HgN/A
7:30 PM82 °FScattered clouds.8 mph62%29.74 "HgN/A
7:00 PM82 °FPassing clouds.8 mph66%29.74 "HgN/A
6:30 PM82 °FPassing clouds.8 mph62%29.74 "HgN/A
6:00 PM82 °FPassing clouds.8 mph62%29.74 "HgN/A
5:30 PM84 °FPassing clouds.8 mph58%29.77 "HgN/A
5:00 PM84 °FPassing clouds.8 mph58%29.77 "HgN/A
4:30 PM84 °FPassing clouds.8 mph58%29.77 "HgN/A
4:00 PM84 °FPassing clouds.8 mph58%29.77 "HgN/A
3:30 PM84 °FPassing clouds.8 mph58%29.77 "HgN/A
3:00 PM84 °FPassing clouds.8 mph58%29.80 "HgN/A
2:30 PM84 °FPassing clouds.8 mph58%29.80 "HgN/A
2:00 PM84 °FPassing clouds.8 mph55%29.80 "HgN/A
1:30 PM84 °FPassing clouds.8 mph58%29.80 "HgN/A
1:00 PM84 °FPassing clouds.8 mph58%29.80 "HgN/A
12:30 PM84 °FScattered clouds.6 mph55%29.80 "HgN/A
12:00 PM84 °FPassing clouds.6 mph51%29.80 "HgN/A
Weather by CustomWeather, © 2014

See weather overviewHow to use our weather pages